Albion, NE

10:52 PM CDT on July 27, 2017 (GMT -0500)
Albion Municipal

Weather History for KBVN - November, 2013

Change the Weather History Date:

Tuesday, November 12, 2013

  Actual Average (KOFK) Record (KOFK)
Temperature  
Mean Temperature 22 °F -  
Max Temperature 37 °F 45 °F 73 °F (1999)
Min Temperature 6 °F 24 °F -3 °F (1911)
Degree Days  
Heating Degree Days 44    
Moisture  
Dew Point 10 °F    
Average Humidity 64    
Maximum Humidity 86    
Minimum Humidity 32    
Precipitation  
Precipitation 0.00 in - - ()
Sea Level Pressure  
Sea Level Pressure 30.68 in    
Wind  
Wind Speed 4 mph (SSW)    
Max Wind Speed 15 mph    
Max Gust Speed 20 mph    
Visibility 10 miles    
Events      
Averages and records for this station are not official NWS values.
T = Trace of Precipitation, MM = Missing Value Source: NWS Daily Summary

Daily Weather History Graph

Daily Weather History Graph

Search for Another Location

Airport or City:

Trip Planner

Search our weather history database for the weather conditions in past years. The results will help you decide how hot, cold, wet, or windy it might be!

Date:

Astronomy

Nov. 12, 2013 Rise Set
Actual Time 7:18 AM CST 5:14 PM CST
Civil Twilight 6:48 AM CST 5:43 PM CST
Nautical Twilight 6:14 AM CST 6:17 PM CST
Astronomical Twilight 5:42 AM CST 6:50 PM CST
Moon 2:33 PM CST (11/12) 2:05 AM CST (11/12)
Length of Visible Light 10h 55m
Length of Day
9h 56m
Waxing Gibbous, 76% of the Moon is Illuminated
Nov 12
Waxing Gibbous
Nov 17
Full
Nov 25
Last Quarter
Dec 2
New
Dec 9
First Quarter

Hourly Weather History & Observations

Time (CST) Temp. Windchill Dew Point Humidity Pressure Visibility Wind Dir Wind Speed Gust Speed Precip Events Conditions
12:15 AM 13.3 °F - 7.7 °F 78% 30.77 in 10.0 mi Calm Calm - N/A   Clear
12:35 AM 12.4 °F - 7.0 °F 79% 30.77 in 10.0 mi Calm Calm - N/A   Clear
12:55 AM 11.8 °F - 6.8 °F 80% 30.77 in 10.0 mi Calm Calm - N/A   Clear
1:15 AM 11.3 °F - 6.4 °F 81% 30.77 in 10.0 mi Calm Calm - N/A   Clear
1:35 AM 10.2 °F - 5.9 °F 83% 30.78 in 10.0 mi Calm Calm - N/A   Clear
1:55 AM 10.0 °F 1.8 °F 5.7 °F 83% 30.78 in 10.0 mi NW 4.6 mph - N/A   Clear
2:15 AM 9.5 °F 1.2 °F 5.9 °F 85% 30.78 in 10.0 mi NW 4.6 mph - N/A   Clear
2:35 AM 9.1 °F 2.6 °F 5.4 °F 85% 30.79 in 10.0 mi NNW 3.5 mph - N/A   Clear
2:55 AM 9.3 °F 2.8 °F 5.4 °F 84% 30.79 in 10.0 mi NNW 3.5 mph - N/A   Clear
3:15 AM 9.1 °F 2.6 °F 5.0 °F 83% 30.78 in 10.0 mi NW 3.5 mph - N/A   Clear
3:35 AM 8.8 °F 0.4 °F 4.8 °F 84% 30.78 in 10.0 mi NNW 4.6 mph - N/A   Clear
3:55 AM 7.7 °F - 3.2 °F 82% 30.78 in 10.0 mi Calm Calm - N/A   Clear
4:15 AM 7.7 °F - 3.7 °F 84% 30.78 in 10.0 mi Calm Calm - N/A   Clear
4:35 AM 6.8 °F -0.1 °F 3.2 °F 85% 30.78 in 10.0 mi NW 3.5 mph - N/A   Clear
4:55 AM 7.3 °F - 3.9 °F 86% 30.79 in 10.0 mi Calm Calm - N/A   Clear
5:15 AM 6.6 °F -0.3 °F 2.5 °F 83% 30.79 in 10.0 mi NW 3.5 mph - N/A   Clear
5:35 AM 7.2 °F 0.3 °F 3.4 °F 85% 30.79 in 10.0 mi NW 3.5 mph - N/A   Clear
5:55 AM 6.8 °F - 2.7 °F 83% 30.80 in 10.0 mi Calm Calm - N/A   Clear
6:15 AM 6.8 °F - 2.7 °F 83% 30.80 in 10.0 mi Calm Calm - N/A   Clear
6:35 AM 7.2 °F - 2.8 °F 82% 30.80 in 10.0 mi Calm Calm - N/A   Clear
6:55 AM 7.5 °F - 3.0 °F 82% 30.81 in 10.0 mi Calm Calm - N/A   Clear
7:15 AM 7.2 °F - 3.0 °F 83% 30.81 in 10.0 mi Calm Calm - N/A   Clear
7:35 AM 7.2 °F - 3.2 °F 84% 30.80 in 10.0 mi Calm Calm - N/A   Clear
7:55 AM 8.4 °F - 4.8 °F 85% 30.81 in 10.0 mi Calm Calm - N/A   Clear
8:15 AM 10.0 °F - 6.1 °F 84% 30.82 in 10.0 mi Calm Calm - N/A   Clear
8:35 AM 12.0 °F - 7.2 °F 81% 30.82 in 10.0 mi Calm Calm - N/A   Clear
8:55 AM 14.0 °F - 8.6 °F 79% 30.82 in 10.0 mi Calm Calm - N/A   Clear
9:15 AM 17.1 °F - 11.8 °F 80% 30.82 in 10.0 mi Calm Calm - N/A   Clear
9:35 AM 20.3 °F 11.5 °F 10.8 °F 67% 30.82 in 10.0 mi SW 6.9 mph - N/A   Clear
9:55 AM 21.2 °F 11.7 °F 9.3 °F 60% 30.80 in 10.0 mi SW 8.1 mph - N/A   Clear
10:15 AM 22.3 °F 12.2 °F 9.1 °F 57% 30.80 in 10.0 mi SSW 9.2 mph - N/A   Clear
10:35 AM 23.4 °F 14.3 °F 11.3 °F 60% 30.79 in 10.0 mi SW 8.1 mph - N/A   Clear
10:55 AM 25.0 °F 16.3 °F 10.2 °F 54% 30.78 in 10.0 mi South 8.1 mph - N/A   Clear
11:15 AM 27.0 °F 18.7 °F 9.3 °F 48% 30.77 in 10.0 mi SSW 8.1 mph - N/A   Clear
11:35 AM 28.6 °F 20.7 °F 9.3 °F 44% 30.76 in 10.0 mi South 8.1 mph - N/A   Clear
11:55 AM 29.8 °F 21.5 °F 9.3 °F 42% 30.75 in 10.0 mi SSW 9.2 mph - N/A   Clear
12:15 PM 31.1 °F 22.4 °F 8.4 °F 39% 30.73 in 10.0 mi SSW 10.4 mph - N/A   Clear
12:35 PM 32.2 °F 23.2 °F 7.9 °F 36% 30.71 in 10.0 mi SSW 11.5 mph - N/A   Clear
12:55 PM 33.8 °F 25.3 °F 8.1 °F 34% 30.70 in 10.0 mi SSW 11.5 mph - N/A   Clear
1:15 PM 34.2 °F 26.2 °F 7.0 °F 32% 30.68 in 10.0 mi SW 10.4 mph - N/A   Clear
1:35 PM 35.1 °F 25.9 °F 7.9 °F 32% 30.67 in 10.0 mi SSW 13.8 mph - N/A   Clear
1:55 PM 36.0 °F 27.1 °F 9.3 °F 33% 30.65 in 10.0 mi SW 13.8 mph 17.3 mph N/A   Clear
2:15 PM 36.5 °F 28.2 °F 9.7 °F 33% 30.64 in 10.0 mi SW 12.7 mph - N/A   Clear
2:35 PM 37.4 °F 28.5 °F 10.4 °F 33% 30.63 in 10.0 mi SSW 15.0 mph - N/A   Clear
2:55 PM 37.4 °F 28.9 °F 10.9 °F 34% 30.63 in 10.0 mi SSW 13.8 mph - N/A   Clear
3:15 PM 37.6 °F 29.6 °F 11.3 °F 34% 30.61 in 10.0 mi SW 12.7 mph 19.6 mph N/A   Clear
3:35 PM 37.6 °F 30.5 °F 12.2 °F 35% 30.60 in 10.0 mi SSW 10.4 mph 17.3 mph N/A   Clear
3:55 PM 37.4 °F 28.9 °F 12.6 °F 36% 30.59 in 10.0 mi SSW 13.8 mph - N/A   Clear
4:15 PM 37.4 °F 29.8 °F 13.1 °F 37% 30.58 in 10.0 mi SSW 11.5 mph 17.3 mph N/A   Clear
4:35 PM 36.5 °F 29.2 °F 13.6 °F 39% 30.58 in 10.0 mi SSW 10.4 mph - N/A   Clear
4:55 PM 35.1 °F 27.9 °F 14.0 °F 42% 30.56 in 10.0 mi SSW 9.2 mph - N/A   Clear
5:15 PM 32.5 °F 27.1 °F 14.7 °F 48% 30.56 in 10.0 mi South 5.8 mph - N/A   Clear
5:35 PM 31.3 °F 24.7 °F 14.9 °F 51% 30.55 in 10.0 mi SSE 6.9 mph - N/A   Clear
5:55 PM 29.5 °F 24.5 °F 15.4 °F 56% 30.55 in 10.0 mi SSE 4.6 mph - N/A   Clear
6:15 PM 28.2 °F 22.0 °F 15.3 °F 58% 30.55 in 10.0 mi SSE 5.8 mph - N/A   Clear
6:35 PM 28.0 °F 24.2 °F 14.9 °F 58% 30.56 in 10.0 mi SSE 3.5 mph - N/A   Clear
6:55 PM 27.1 °F 20.7 °F 14.9 °F 60% 30.56 in 10.0 mi SSE 5.8 mph - N/A   Clear
7:15 PM 26.6 °F 21.2 °F 15.1 °F 62% 30.56 in 10.0 mi SE 4.6 mph - N/A   Clear
7:35 PM 26.2 °F 19.6 °F 15.3 °F 63% 30.55 in 10.0 mi SE 5.8 mph - N/A   Clear
7:55 PM 24.6 °F 17.7 °F 15.3 °F 68% 30.55 in 10.0 mi SSE 5.8 mph - N/A   Clear
8:15 PM 24.6 °F 17.7 °F 15.4 °F 68% 30.54 in 10.0 mi SSE 5.8 mph - N/A   Clear
8:35 PM 26.4 °F 18.9 °F 16.3 °F 66% 30.53 in 10.0 mi SSE 6.9 mph - N/A   Clear
8:55 PM 26.4 °F 19.8 °F 16.0 °F 65% 30.53 in 10.0 mi SSE 5.8 mph - N/A   Clear
9:15 PM 26.1 °F 18.4 °F 16.0 °F 66% 30.52 in 10.0 mi SSE 6.9 mph - N/A   Clear
9:35 PM 25.2 °F 16.5 °F 16.3 °F 69% 30.51 in 10.0 mi SSE 8.1 mph - N/A   Clear
9:55 PM 25.9 °F 18.2 °F 16.5 °F 68% 30.50 in 10.0 mi SSE 6.9 mph - N/A   Clear
10:15 PM 26.1 °F 18.4 °F 16.0 °F 66% 30.50 in 10.0 mi SSE 6.9 mph - N/A   Clear
10:35 PM 25.7 °F 17.1 °F 15.8 °F 66% 30.49 in 10.0 mi SSE 8.1 mph - N/A   Clear
10:55 PM 24.6 °F 17.7 °F 15.8 °F 69% 30.48 in 10.0 mi SSE 5.8 mph - N/A   Clear
11:15 PM 24.6 °F 17.7 °F 15.6 °F 69% 30.47 in 10.0 mi South 5.8 mph - N/A   Clear
11:35 PM 24.8 °F 17.9 °F 15.8 °F 69% 30.46 in 10.0 mi South 5.8 mph - N/A   Clear
11:55 PM 25.3 °F 17.6 °F 16.0 °F 68% 30.45 in 10.0 mi South 6.9 mph - N/A   Clear